SAUDISAT 1C (SO-50) (27607 NORAD) Tracking and Keplerian Element Data

This shows tracking and keplerian element data for the satellite.

Feedback or suggestion? Click here.




ElementValue
Catalog27607
NameSAUDISAT 1C (SO-50)
Epoch Orbit88345
Epoch Day145.41882256
Epoch Year2019
RAAN123.8066
Inclination64.5535
Eccentricity0.0082044
Argument of Perigee261.1759
Mean Anonmoly98.0047
Mean Motion14.75547421
Decay Rate-3.2E-07
L11 27607U 02058C 19145.41882256 -.00000032 00000-0 16415-4 0 9990
L22 27607 64.5535 123.8066 0082044 261.1759 98.0047 14.75547421883453

Live tracking and technical data element details for SAUDISAT 1C (SO-50) (NORAD 27607). SAUDISAT 1C (SO-50) can be tracked NOW for your location showing map with azimuth and elevation plus other details from your city location.

Track the satellite on the map from your city or location and see movement details for azimuth, elevation, latitude, longitude, range, height, and movement on the map or in text.







IsCatalogInMostPopularTable: catalog: 27607, numindb: 207
Update: records affected: 1



GetName: 27607 SAUDISAT 1C (SO-50)

Hit Count: updated at: Mon, 27 May 2019 02:58:25 GMT